Theta_e
338 340 341 341 341 341 339 338 337 338 340 341 341 340 341 341 340 340 339 339 338 338 337 337 336 336 336 336 336 336 336 336 336 336 336 336 336 336 336 335 336 335 335 335 333 332 330 329 328 325 323 317
336 338 339 339 339 339 339 340 339 339 339 339 339 339 338 338 339 340 341 340 339 339 337 336 335 335 335 335 335 335 335 335 336 335 335 336 336 336 336 335 335 335 334 334 332 330 328 326 326 325 324 315
331 333 335 336 336 338 338 339 338 336 335 336 336 334 333 332 332 332 334 337 337 336 335 334 335 335 334 335 335 335 335 334 335 334 335 335 335 335 334 334 333 332 332 332 330 328 325 323 323 322 320 317
325 329 330 332 334 335 335 335 334 332 330 329 327 328 328 327 326 325 325 325 327 331 332 331 328 335 336 335 335 334 334 334 334 334 334 335 335 335 332 330 328 327 329 329 328 326 321 319 320 316 315 315
328 328 328 329 329 330 330 330 330 328 323 322 323 323 323 322 320 319 320 320 321 323 322 324 326 333 335 334 334 334 334 334 334 334 334 334 334 333 329 324 320 319 322 325 325 323 318 314 314 313 313 313
328 328 328 327 325 325 325 324 323 320 318 324 315 320 318 318 319 316 315 319 325 319 321 321 323 327 332 334 333 334 333 334 334 333 333 333 333 330 326 320 313 313 315 317 320 318 313 313 313 312 312 312
326 327 328 326 323 323 323 324 318 317 317 315 315 313 314 316 316 316 317 317 319 317 315 317 321 325 329 332 330 332 332 332 332 333 331 329 327 324 319 314 313 313 313 311 315 312 311 311 312 311 311 313
327 326 326 324 320 322 320 318 317 316 314 313 313 313 313 316 317 317 317 321 323 319 316 316 318 320 321 322 320 320 320 319 321 322 322 320 319 313 312 312 313 312 313 313 310 312 313 311 310 310 309 310
327 326 324 320 320 320 319 318 317 317 315 314 313 312 313 313 315 316 316 317 316 314 314 315 315 315 315 314 317 318 318 314 314 312 312 310 311 310 308 310 310 311 314 312 311 311 310 310 309 309 308 309
328 327 325 321 319 320 319 319 318 317 316 315 314 313 314 314 315 316 316 316 314 312 312 314 314 313 313 313 315 317 317 314 314 313 312 311 312 310 308 308 308 308 308 310 309 310 310 310 310 310 309 310
328 327 327 325 322 321 320 316 318 317 316 317 316 314 314 316 312 313 316 316 314 314 312 314 311 312 311 312 314 318 316 316 314 313 314 313 311 308 309 309 308 307 307 307 309 311 311 311 311 311 310 309
327 328 327 327 324 322 318 318 318 319 319 318 318 316 316 315 315 314 315 315 315 314 313 314 312 310 312 312 312 314 314 314 312 312 312 310 309 310 310 308 311 311 312 312 311 312 314 313 313 312 311 310
327 327 327 326 325 324 321 319 319 318 317 318 318 318 315 314 315 313 312 313 314 311 315 313 311 311 312 310 310 310 312 312 311 310 309 309 310 310 311 311 313 312 313 312 312 312 314 314 314 314 313 311
326 326 326 325 325 326 323 321 319 316 317 318 318 318 316 316 316 316 316 315 311 312 313 311 310 312 311 311 310 312 313 310 310 311 309 309 310 309 311 313 315 312 314 316 315 313 312 313 314 313 312 311
325 325 325 325 324 324 323 321 319 318 318 317 317 319 316 316 315 316 314 314 311 312 312 310 311 311 310 311 312 311 314 310 310 310 310 311 310 311 311 315 315 313 314 315 316 315 314 313 313 313 312 310
323 323 323 322 321 321 321 318 318 317 318 317 318 316 316 315 315 313 313 313 311 311 311 311 311 310 310 313 311 310 311 311 309 309 309 308 309 310 312 314 314 314 313 314 315 313 311 313 312 311 310 309
325 323 323 322 322 321 321 320 318 318 318 319 318 317 317 316 315 315 315 313 313 311 311 311 310 309 311 312 311 310 311 310 309 308 308 311 307 309 312 314 315 315 313 313 312 309 311 310 310 310 309 309
325 323 323 323 323 321 321 319 319 319 319 318 317 318 317 316 316 315 314 314 311 312 312 311 312 311 311 310 310 310 309 311 312 314 313 314 312 314 313 311 312 310 312 311 307 307 309 308 309 309 309 309
325 323 323 323 322 322 322 321 321 320 320 318 319 318 317 317 316 316 317 315 315 314 314 314 315 315 317 315 313 314 314 316 315 314 315 315 315 315 313 310 311 309 310 307 309 310 310 311 311 311 311 310
325 325 324 323 321 323 321 321 321 321 321 320 318 319 319 318 318 318 319 319 319 318 318 318 318 318 317 316 315 316 315 315 316 316 315 314 315 313 312 310 312 308 308 307 310 311 311 312 312 312 312 310
324 324 323 323 323 323 322 322 322 321 320 320 320 321 322 321 321 320 321 321 321 322 321 321 321 320 319 318 318 318 317 316 316 314 313 312 313 313 312 310 309 311 311 312 312 313 312 312 312 312 311 310
325 324 323 322 322 320 322 321 321 321 320 322 323 323 323 322 322 322 323 323 323 323 324 323 320 321 321 320 319 317 315 316 312 311 311 311 311 311 309 308 311 313 313 313 313 314 313 312 311 311 311 310
325 324 323 322 322 322 323 322 321 321 322 325 326 324 324 323 323 323 324 325 324 324 322 320 320 321 322 320 317 314 312 314 312 310 310 310 311 308 307 311 313 314 313 313 313 312 312 311 311 310 309 307
324 323 322 322 320 321 323 325 323 323 325 325 326 326 326 325 325 323 322 322 322 321 320 321 323 323 321 318 317 316 317 319 315 311 310 309 307 309 309 310 312 314 314 313 312 311 311 309 309 309 308 307
324 323 322 321 322 322 324 325 325 325 326 327 327 327 326 325 326 325 324 323 323 323 322 323 322 320 317 314 317 316 317 318 314 310 310 310 310 312 314 317 316 314 312 312 313 313 310 310 309 308 306 304
325 325 325 325 324 321 323 324 324 325 326 327 327 326 326 326 325 324 323 321 322 320 322 323 320 320 320 316 314 314 314 313 311 312 312 313 316 315 316 314 313 316 314 310 309 310 310 305 305 304 303 301
325 324 321 324 319 324 317 319 327 327 327 327 328 328 327 325 325 325 325 325 323 324 322 322 323 321 317 315 314 315 317 315 316 316 316 316 316 316 314 312 311 311 314 312 311 310 304 301 304 303 296 295
325 324 321 320 318 321 322 320 317 323 322 324 325 325 325 326 324 324 325 325 324 321 323 322 319 318 317 316 317 320 319 319 318 317 316 316 314 314 313 313 312 308 310 312 311 307 306 306 305 304 298 306
322 320 318 317 316 317 318 318 319 320 320 323 323 322 322 324 323 324 325 325 323 319 321 322 323 323 323 322 321 320 319 318 318 317 316 316 315 314 313 312 312 311 310 308 311 311 306 304 302 302 306 306
321 322 323 321 322 320 319 321 320 322 321 318 320 324 322 322 322 324 323 322 324 325 322 323 323 322 321 320 319 319 319 318 317 316 315 315 315 314 314 313 310 310 308 307 308 310 311 309 306 304 305 304
320 321 322 323 324 324 323 322 319 320 319 323 318 317 320 321 321 322 322 321 323 323 322 321 321 320 320 320 320 316 318 317 315 313 312 310 311 311 310 308 306 308 309 306 307 307 307 306 307 307 304 301
Wind_Speed
8 8 9 9 9 9 10 9 9 9 9 10 12 12 12 12 12 11 10 9 10 11 11 10 9 9 8 8 9 9 10 10 10 10 9 9 10 11 11 11 11 11 11 10 10 9 8 7 6 5 4 3
9 9 9 9 9 9 8 9 10 10 10 10 10 10 10 9 10 11 12 11 12 12 11 10 10 10 9 8 8 9 9 8 9 9 9 9 10 10 10 10 10 10 10 10 9 8 8 8 6 5 4 3
6 10 9 9 8 9 10 10 9 9 9 9 8 9 10 10 10 10 10 10 9 9 9 8 8 8 7 7 7 7 7 7 7 7 8 9 9 9 10 10 10 10 11 10 9 9 9 8 7 6 4 4
4 7 9 9 9 9 9 9 9 8 8 8 8 8 9 9 7 7 6 8 6 8 7 7 5 5 5 6 7 6 6 6 6 7 7 8 9 10 10 10 9 9 9 10 9 9 8 7 5 4 3 3
4 4 7 7 9 9 9 8 8 8 9 8 7 7 7 7 5 4 4 4 4 6 5 6 6 6 6 6 5 5 5 6 6 6 7 8 9 9 9 8 8 7 8 9 9 8 8 5 3 3 2 3
3 3 4 4 4 5 6 6 6 5 4 5 4 5 5 4 4 3 3 3 4 3 3 4 5 5 5 5 4 4 5 5 5 6 7 8 8 8 8 8 5 5 5 7 8 8 7 4 3 3 2 2
3 3 3 3 4 4 5 4 4 4 4 3 3 3 3 3 2 2 2 2 3 3 4 3 4 4 4 4 5 5 6 7 9 9 9 9 8 8 7 5 3 4 4 4 6 5 4 4 4 4 4 3
3 2 3 3 3 4 3 4 3 3 3 3 3 3 3 2 2 2 2 4 6 4 2 2 3 6 6 6 7 8 4 6 6 8 7 8 7 4 3 3 4 4 4 4 3 3 3 3 3 3 2 3
3 2 2 2 3 3 4 3 3 2 3 3 3 3 3 2 2 2 1 2 2 2 1 1 2 2 2 2 2 5 3 3 3 4 5 5 4 3 3 3 3 3 4 4 5 4 4 4 4 4 3 3
3 3 3 3 3 3 3 3 3 2 2 2 2 2 2 2 2 1 1 1 1 1 1 1 1 1 1 2 1 2 2 2 3 3 3 3 3 3 1 1 1 1 1 3 5 4 5 4 4 4 5 4
4 4 3 3 3 4 4 3 4 3 3 2 2 3 2 3 2 1 1 0 0 0 1 1 1 1 1 0 1 1 1 2 2 2 2 2 2 2 2 3 3 2 2 1 3 4 4 4 4 5 5 4
5 4 4 4 3 3 3 4 4 4 4 3 3 3 3 3 3 3 2 1 1 1 0 1 1 1 0 0 0 0 0 1 1 2 1 2 3 4 4 3 4 4 3 3 2 4 5 5 5 5 5 4
5 5 5 5 4 4 3 3 4 4 3 3 3 3 3 3 3 2 2 3 2 1 2 1 1 1 2 1 1 0 1 1 3 3 2 3 3 3 4 3 4 4 4 3 2 2 5 5 5 5 5 5
5 5 5 6 4 5 3 4 4 3 3 3 3 3 3 3 3 4 4 4 2 3 3 1 1 1 2 2 2 1 3 2 2 3 3 3 3 4 5 4 3 2 4 5 4 2 4 5 4 5 5 6
6 5 7 5 4 4 4 4 3 3 3 3 3 3 3 3 3 4 4 3 3 2 2 1 1 2 1 4 2 1 4 1 2 2 3 3 4 4 4 4 2 2 4 4 5 4 4 4 5 5 5 5
5 6 5 4 4 4 4 3 3 3 3 3 3 3 3 3 3 3 3 3 3 3 2 2 2 2 2 4 2 2 3 3 2 3 3 4 4 3 2 4 4 2 2 4 5 4 4 5 5 5 6 6
6 5 4 5 5 4 4 3 3 4 4 5 3 3 4 4 3 5 4 3 3 3 3 2 2 3 4 4 3 3 3 3 3 2 3 5 1 3 2 3 5 2 2 4 5 3 4 5 6 5 6 6
5 5 5 4 4 4 4 5 5 5 4 4 3 3 3 3 4 4 4 4 3 3 3 3 3 4 4 4 3 4 3 3 2 3 3 4 2 4 3 4 4 3 5 5 3 4 4 5 6 5 6 5
7 5 5 5 5 5 5 5 5 5 5 4 5 4 5 4 4 4 4 3 4 4 4 4 4 3 4 3 3 3 3 3 2 3 4 3 4 4 4 4 4 4 4 3 6 6 6 6 6 5 6 5
7 7 6 6 6 5 5 5 5 5 6 5 4 4 4 4 4 4 5 5 4 4 3 3 4 4 2 2 2 3 2 2 4 3 3 3 3 3 4 3 6 1 3 3 5 6 6 6 5 6 6 6
6 5 6 6 6 7 5 6 6 5 5 5 5 4 4 4 4 4 4 4 5 4 4 4 4 4 3 3 3 4 4 4 4 3 2 3 3 3 4 4 5 7 4 5 5 6 6 6 6 7 6 6
8 7 6 5 6 5 6 6 5 5 5 5 5 4 5 5 4 4 4 4 4 4 5 5 4 2 2 3 4 3 1 5 2 1 1 3 2 0 1 4 5 7 5 4 5 6 6 7 6 7 6 6
7 6 5 4 4 5 5 4 3 3 4 5 4 5 5 6 4 4 3 3 4 4 5 4 3 2 3 3 1 1 3 4 3 1 0 1 4 1 1 4 4 5 4 5 5 6 6 6 7 6 6 5
6 5 6 6 3 3 3 4 4 3 5 4 4 5 5 6 7 5 5 5 5 5 4 5 5 5 1 1 3 3 5 5 4 3 1 2 2 5 4 3 4 4 4 4 5 7 6 6 6 7 6 4
7 6 5 3 6 6 5 6 5 5 4 4 5 5 5 3 4 5 7 6 6 7 7 5 4 4 4 2 2 3 4 3 2 0 1 2 2 3 2 3 1 2 1 4 5 3 5 5 5 6 5 2
8 8 8 7 7 4 5 5 5 4 3 4 5 4 4 4 3 3 2 2 2 3 3 4 4 3 4 3 3 3 3 3 1 1 2 2 3 2 2 1 2 4 1 2 3 7 7 2 3 3 2 3
8 5 5 6 4 7 4 3 6 6 5 5 4 5 5 3 3 3 3 4 4 5 5 4 4 5 3 2 2 2 3 2 3 2 2 2 3 2 1 1 1 2 0 2 3 3 2 3 7 5 3 2
7 7 5 4 4 4 4 4 2 4 4 3 2 2 2 4 4 4 3 4 5 5 4 3 3 2 1 2 3 3 3 2 1 1 1 0 1 1 1 1 0 2 1 1 3 4 1 3 2 5 2 7
6 6 4 4 4 3 4 3 3 3 2 4 3 1 1 3 3 5 5 4 3 2 3 4 3 4 4 3 3 3 2 1 1 2 2 3 2 1 1 1 1 1 3 3 2 1 3 3 1 1 4 7
8 8 9 7 7 6 4 5 4 5 5 3 3 5 2 1 2 3 3 2 3 3 2 2 2 2 2 3 2 2 2 3 3 3 4 3 3 2 1 1 2 1 2 3 3 1 1 1 3 5 3 3
8 8 8 10 10 9 8 7 4 3 4 5 4 2 2 3 0 2 2 1 2 4 5 4 3 4 3 5 4 3 3 3 3 4 3 3 3 2 1 2 2 3 1 1 3 2 1 2 1 1 4 3
Wind_Direction
105 110 106 104 102 97 100 104 101 99 79 77 75 85 85 74 73 80 94 97 96 91 86 85 82 78 73 71 70 68 70 67 68 67 67 64 59 57 57 57 55 55 57 53 51 48 46 46 40 42 50 34
100 103 100 98 97 97 92 93 92 87 80 81 78 78 73 68 74 78 80 83 87 86 81 74 71 66 62 66 64 66 63 65 63 58 58 54 52 51 50 49 45 42 43 45 49 47 38 32 31 40 38 35
101 108 106 101 94 96 98 93 90 86 84 83 79 85 82 77 73 73 69 78 81 80 77 72 67 71 73 77 73 69 64 62 63 61 54 48 44 43 43 38 35 30 29 30 32 39 37 26 9 18 23 10
91 112 113 106 99 103 106 104 100 93 90 89 89 89 92 90 81 76 73 74 71 76 76 76 78 80 80 83 80 74 75 68 65 58 51 44 39 40 40 34 31 28 22 21 20 22 23 20 10 16 7 357
90 95 113 111 111 112 113 109 102 98 94 91 89 91 89 89 87 82 81 74 76 69 60 64 70 72 76 77 77 81 76 70 61 53 47 41 39 41 33 27 30 31 22 13 12 4 357 2 23 6 357 337
117 111 103 118 120 118 116 111 106 103 103 99 91 88 83 85 84 72 70 77 84 66 59 50 55 75 77 78 64 63 75 71 57 45 42 37 40 35 29 26 18 6 359 11 10 351 351 6 2 353 339 343
126 133 128 132 126 124 125 119 108 103 100 106 105 93 91 81 63 65 51 42 52 64 67 59 29 32 62 64 49 44 44 42 33 36 31 29 27 30 29 27 21 1 355 345 2 10 11 0 346 332 345 347
140 146 148 148 135 129 128 119 116 113 114 120 121 116 105 89 82 74 61 44 54 59 39 47 36 29 38 37 40 23 29 23 28 22 28 26 26 26 21 17 15 357 347 347 350 358 1 337 334 334 312 332
165 158 155 162 145 139 138 130 121 121 134 137 131 124 111 105 90 75 62 52 44 47 39 36 29 22 19 17 35 17 19 8 7 19 8 1 22 24 7 14 355 7 343 339 342 343 339 337 329 323 315 303
165 165 183 174 169 147 144 150 150 145 142 146 145 128 115 99 95 89 92 65 54 35 49 23 38 35 18 36 28 25 14 359 6 7 12 12 357 354 29 3 296 313 288 316 329 326 325 324 320 321 313 319
175 194 193 192 177 163 180 168 162 176 172 172 157 147 144 141 138 126 112 86 29 43 40 323 343 25 42 46 38 29 356 334 343 0 346 340 319 308 338 328 314 313 302 259 309 314 313 315 319 317 314 313
188 192 191 199 186 209 183 167 185 185 185 170 170 172 176 166 160 162 167 195 212 223 83 257 300 302 10 166 110 128 165 281 290 299 301 310 319 339 333 335 319 326 325 321 331 322 313 314 314 305 301 296
189 190 194 200 201 205 187 191 195 188 168 175 180 179 175 163 171 170 178 204 214 161 215 241 278 297 266 287 248 169 251 212 286 308 315 322 311 316 307 312 305 322 310 306 310 297 301 301 302 305 306 303
189 191 196 200 195 200 182 212 196 172 185 186 171 189 183 186 180 185 193 206 181 179 235 235 268 298 293 290 265 217 273 227 217 269 304 300 302 299 293 302 293 319 313 317 309 254 273 289 303 302 302 306
189 187 202 198 193 187 203 208 179 186 195 186 190 192 178 187 188 181 183 181 181 192 221 241 241 262 292 287 283 259 275 300 250 256 260 273 278 279 287 289 303 306 306 302 306 295 300 313 316 304 307 300
187 192 196 192 184 197 202 189 192 196 192 201 204 181 176 179 184 173 184 175 175 188 198 231 239 267 271 268 297 249 262 279 255 247 257 260 253 267 292 301 304 265 261 292 285 312 315 315 311 304 301 299
194 187 188 185 192 195 187 188 189 200 202 207 200 184 178 175 174 181 181 191 184 184 195 205 215 238 237 247 248 234 229 239 247 254 277 273 281 298 286 283 281 281 240 270 292 320 299 302 296 290 293 291
188 193 191 188 186 183 182 189 192 211 211 207 193 186 188 177 178 182 185 170 193 184 196 207 215 225 249 235 226 224 208 220 214 248 269 284 324 267 245 261 269 301 300 296 313 299 284 283 276 289 292 288
197 190 187 187 189 189 189 189 198 207 205 202 205 182 197 188 182 184 178 174 171 189 187 196 215 226 237 216 208 210 208 220 210 209 240 246 263 276 275 281 284 272 287 316 308 298 294 291 300 291 282 296
194 191 191 191 193 192 190 190 201 204 203 200 186 186 201 196 187 183 181 173 170 163 180 177 192 214 182 218 205 219 205 194 230 220 241 252 225 276 291 296 294 324 313 299 291 292 298 298 299 296 298 292
192 188 192 194 194 199 190 195 205 206 197 183 180 187 202 189 183 192 184 183 181 169 177 185 196 220 196 174 197 193 196 213 232 216 234 264 219 197 265 303 295 300 293 294 295 300 301 300 301 294 293 291
190 193 192 193 196 191 195 205 204 200 180 188 186 178 192 176 173 184 189 186 188 189 194 186 185 219 211 185 209 224 213 244 260 221 184 270 292 180 237 286 290 291 303 308 297 288 289 294 293 287 288 287
190 186 189 188 184 189 203 203 203 177 191 198 180 183 188 163 158 176 169 178 187 200 206 212 220 213 233 211 202 199 258 278 301 339 0 260 296 354 224 250 271 278 294 289 280 282 286 292 285 286 280 284
182 177 183 186 182 199 203 201 191 193 203 195 189 192 193 176 158 171 187 187 190 206 225 242 239 237 263 149 161 214 262 269 261 256 268 267 243 291 297 224 247 268 273 277 275 282 284 265 279 287 279 292
181 184 189 199 198 196 187 190 188 194 198 202 201 192 188 195 190 188 191 195 194 201 218 231 237 232 244 170 187 216 238 263 342 79 218 248 194 245 282 308 287 282 218 287 295 258 262 288 276 268 279 342
187 190 189 181 188 179 177 180 182 193 197 202 198 192 191 186 183 155 164 181 234 270 251 239 237 233 246 202 211 222 249 276 260 213 207 213 280 196 234 273 306 301 334 359 357 331 328 286 304 300 355 24
193 188 185 179 175 176 188 228 181 179 187 188 195 195 182 181 182 177 189 201 203 211 219 221 210 229 233 212 201 242 270 259 268 228 225 206 215 283 187 226 319 327 164 323 325 291 339 341 349 335 2 335
191 182 177 165 154 173 146 178 175 153 131 145 153 220 229 179 192 212 216 206 204 208 208 211 222 251 223 202 191 207 244 249 269 243 171 130 226 174 329 354 311 34 36 105 13 352 343 304 320 311 335 350
167 138 123 105 70 96 93 65 105 124 149 153 161 171 169 234 223 233 217 213 217 193 204 190 194 206 212 196 187 178 189 185 150 113 98 113 94 139 176 340 344 356 26 32 43 341 355 337 351 290 323 343
163 169 163 156 158 161 171 181 165 181 174 160 175 196 184 227 204 216 215 196 208 197 168 149 143 133 115 96 100 125 145 124 105 90 80 63 103 88 176 152 76 8 345 62 83 87 126 184 293 320 324 342
169 172 177 181 186 185 183 184 202 171 167 174 179 149 188 206 227 210 157 97 136 113 112 106 103 110 105 99 101 92 96 98 99 98 95 83 84 93 89 116 108 91 335 12 54 54 63 56 340 7 359 325